Aérodrome :
LOGIN :

S'inscrire | Disclaimer

   EN    FR    IT 

 










Légende :    VFR   VFR Marginal   IFR   IFR Intensif   IFR Très Intensif
Visi : 
Plafond : 
>= 8 km
>= 3000ft
5 à 8 km
1000 à 3000 ft
1500m à 5 km
500 à 1000 ft
800 à 1500m
200 à 500 ft
< 800m
< 200 ft
Symboles :   Orages  Brouillard  Fortes neiges  Fortes précipitations  Vent > 20 kt
SIGMETs :   Divers  Orages  Givrage  Turbulence  Onde Orograph.  Cendres Volcan.







- Altitude de l'aérodrome : 13 ft
- Code IATA : GOA


LIMJ - Genoa Cristoforo Colombo

DERNIER METAR :
  • 202150Z 03004KT 9999 FEW025 24/19 Q1013

METARs EXPIRÉS :
  • 202120Z 04004KT 010V070 9999 FEW025 24/20 Q1013
  • 202050Z 32004KT 9999 FEW025 SCT040 24/20 Q1013
  • 202020Z 31004KT 270V340 9999 FEW025 SCT065 24/21 Q1013
  • 201950Z VRB01KT 9999 FEW025 SCT065 24/22 Q1013

TAF TAF LIMJ
Valide du 20 à 18h jusqu'au 21 à 18h UTC


201700Z 2018/2118 13010KT 9999 SCT025 SCT060
BECMG 2020/2022 VRB05KT
Pas de NOTAMs connus pour ce terrain.



MET'MAP, la Météo Aéronautique d'un coup d'oeil ! - Copyright ORBIFLY Décembre 2007 - Disclaimer

ORBIFLY MET'MAP TEAM :

Programmation & Développement : Alexandra Zaïnal
Conception & Développement : Baudouin d'Aumeries
Co-Programmation & Développement : Marc-Olivier Méhu
Soutien technique & logistique : Manuel Goepfert

Contact : metmap@orbifly.com




SOURCES & CREDITS :

   NOAA